SITE: BDASe,YEAR: 2005,,,,,
2005date,time,pzhd (cm),DWT (cm),WT elev (m),,
01/01/05,0:00,131.8,227.8,1371.203,,1/1 00:00--6/9 23:30:
01/01/05,0:30,131.6,227.9,1371.201,,Depth to water table:
01/01/05,1:00,131.7,227.8,1371.202,,DWT = SCL - CH - h (all values in cm)
01/01/05,1:30,131.8,227.7,1371.203,,where
01/01/05,2:00,131.6,227.9,1371.201,,SCL = sensor cable length = 516.0 cm
01/01/05,2:30,131.6,227.9,1371.201,,CH = casing height of well = 156.5 cm
01/01/05,3:00,131.7,227.8,1371.202,,h = height of water above sensor (from pzhd column)
01/01/05,3:30,131.9,227.6,1371.204,,
01/01/05,4:00,131.8,227.7,1371.203,,WT elevation:
01/01/05,4:30,131.8,227.7,1371.203,,Sensor elev = 1369.885 m asl
01/01/05,5:00,131.8,227.7,1371.203,,WT elev = sensor elev + h (from pzhd column)
01/01/05,5:30,131.8,227.7,1371.203,,
01/01/05,6:00,131.6,227.9,1371.201,,
01/01/05,6:30,131.6,227.9,1371.201,,Dates with missing data (# 0.5 hr data points): none.
01/01/05,7:00,131.6,227.9,1371.201,,
01/01/05,7:30,131.4,228.1,1371.199,,
01/01/05,8:00,131.3,228.2,1371.198,,"east well est from avg chg in c, n wells,"
01/01/05,8:30,131.2,228.3,1371.197,,4/21 13:30 thru 6/9 11:30. PT malfunction.
01/01/05,9:00,131.1,228.4,1371.196,,
01/01/05,9:30,131.0,228.5,1371.195,,e well data from 6/9 12:00 thru
01/01/05,10:00,131.1,228.4,1371.196,,23:30 corrected using avg rate
01/01/05,10:30,131.1,228.4,1371.196,,betw endpoints of 0.1225/0.5 hr.
01/01/05,11:00,131.3,228.2,1371.198,,
01/01/05,11:30,131.6,228.0,1371.201,,2373 total est datapoints.
01/01/05,12:00,131.8,227.8,1371.203,,
01/01/05,12:30,132.1,227.5,1371.206,,
01/01/05,13:00,132.2,227.3,1371.207,,
01/01/05,13:30,132.2,227.3,1371.207,,
01/01/05,14:00,132.3,227.2,1371.208,,
01/01/05,14:30,132.2,227.3,1371.207,,
01/01/05,15:00,132.2,227.3,1371.207,,
01/01/05,15:30,132.2,227.3,1371.207,,
01/01/05,16:00,132.1,227.4,1371.206,,
01/01/05,16:30,132.0,227.5,1371.205,,
01/01/05,17:00,131.9,227.6,1371.204,,
01/01/05,17:30,131.8,227.7,1371.203,,
01/01/05,18:00,131.8,227.7,1371.203,,
01/01/05,18:30,131.6,227.9,1371.201,,
01/01/05,19:00,131.5,228.0,1371.200,,
01/01/05,19:30,131.5,228.0,1371.200,,
01/01/05,20:00,131.4,228.1,1371.199,,
01/01/05,20:30,131.4,228.1,1371.199,,
01/01/05,21:00,131.4,228.1,1371.199,,
01/01/05,21:30,131.4,228.1,1371.199,,
01/01/05,22:00,131.3,228.2,1371.198,,
01/01/05,22:30,131.3,228.2,1371.198,,
01/01/05,23:00,131.3,228.2,1371.198,,
01/01/05,23:30,131.4,228.1,1371.199,,
01/02/05,0:00,131.5,228.1,1371.200,,
01/02/05,0:30,131.6,228.0,1371.201,,
01/02/05,1:00,131.6,227.9,1371.201,,
01/02/05,1:30,131.6,227.9,1371.201,,
01/02/05,2:00,131.6,227.9,1371.201,,
01/02/05,2:30,131.7,227.8,1371.202,,
01/02/05,3:00,131.8,227.7,1371.203,,
01/02/05,3:30,131.8,227.7,1371.203,,
01/02/05,4:00,131.8,227.7,1371.203,,
01/02/05,4:30,132.0,227.5,1371.205,,
01/02/05,5:00,132.0,227.5,1371.205,,
01/02/05,5:30,131.9,227.6,1371.204,,
01/02/05,6:00,131.9,227.6,1371.204,,
01/02/05,6:30,131.9,227.6,1371.204,,
01/02/05,7:00,131.8,227.7,1371.203,,
01/02/05,7:30,131.9,227.6,1371.204,,
01/02/05,8:00,132.0,227.5,1371.205,,
01/02/05,8:30,132.1,227.4,1371.206,,
01/02/05,9:00,131.9,227.6,1371.204,,
01/02/05,9:30,131.8,227.7,1371.203,,
01/02/05,10:00,131.8,227.7,1371.203,,
01/02/05,10:30,131.9,227.6,1371.204,,
01/02/05,11:00,132.0,227.5,1371.205,,
01/02/05,11:30,132.0,227.5,1371.205,,
01/02/05,12:00,132.3,227.2,1371.208,,
01/02/05,12:30,132.4,227.2,1371.209,,
01/02/05,13:00,132.6,227.0,1371.211,,
01/02/05,13:30,132.5,227.0,1371.210,,
01/02/05,14:00,132.5,227.0,1371.210,,
01/02/05,14:30,132.6,226.9,1371.211,,
01/02/05,15:00,132.5,227.0,1371.210,,
01/02/05,15:30,132.6,226.9,1371.211,,
01/02/05,16:00,132.5,227.0,1371.210,,
01/02/05,16:30,132.3,227.2,1371.208,,
01/02/05,17:00,132.4,227.1,1371.209,,
01/02/05,17:30,132.3,227.2,1371.208,,
01/02/05,18:00,132.3,227.2,1371.208,,
01/02/05,18:30,132.1,227.4,1371.206,,
01/02/05,19:00,132.1,227.4,1371.206,,
01/02/05,19:30,132.0,227.5,1371.205,,
01/02/05,20:00,132.0,227.5,1371.205,,
01/02/05,20:30,132.0,227.5,1371.205,,
01/02/05,21:00,131.9,227.6,1371.204,,
01/02/05,21:30,131.8,227.7,1371.203,,
01/02/05,22:00,131.9,227.6,1371.204,,
01/02/05,22:30,131.8,227.7,1371.203,,
01/02/05,23:00,131.8,227.7,1371.203,,
01/02/05,23:30,131.9,227.6,1371.204,,
01/03/05,0:00,132.1,227.4,1371.206,,
01/03/05,0:30,132.1,227.5,1371.206,,
01/03/05,1:00,132.2,227.4,1371.207,,
01/03/05,1:30,132.2,227.4,1371.207,,
01/03/05,2:00,132.1,227.4,1371.206,,
01/03/05,2:30,132.0,227.5,1371.205,,
01/03/05,3:00,132.1,227.4,1371.206,,
01/03/05,3:30,132.2,227.3,1371.207,,
01/03/05,4:00,132.3,227.2,1371.208,,
01/03/05,4:30,132.5,227.0,1371.210,,
01/03/05,5:00,132.5,227.0,1371.210,,
01/03/05,5:30,132.4,227.1,1371.209,,
01/03/05,6:00,132.3,227.2,1371.208,,
01/03/05,6:30,132.4,227.1,1371.209,,
01/03/05,7:00,132.3,227.2,1371.208,,
01/03/05,7:30,132.3,227.2,1371.208,,
01/03/05,8:00,132.4,227.1,1371.209,,
01/03/05,8:30,132.3,227.2,1371.208,,
01/03/05,9:00,132.3,227.2,1371.208,,
01/03/05,9:30,132.1,227.4,1371.206,,
01/03/05,10:00,132.2,227.3,1371.207,,
01/03/05,10:30,132.4,227.1,1371.209,,
01/03/05,11:00,132.6,226.9,1371.211,,
01/03/05,11:30,132.7,226.8,1371.212,,
01/03/05,12:00,133.1,226.4,1371.216,,
01/03/05,12:30,133.3,226.2,1371.218,,
01/03/05,13:00,133.5,226.1,1371.220,,
01/03/05,13:30,133.7,225.9,1371.222,,
01/03/05,14:00,133.6,225.9,1371.221,,
01/03/05,14:30,133.6,225.9,1371.221,,
01/03/05,15:00,133.6,225.9,1371.221,,
01/03/05,15:30,133.5,226.0,1371.220,,
01/03/05,16:00,133.4,226.1,1371.219,,
01/03/05,16:30,133.6,225.9,1371.221,,
01/03/05,17:00,133.6,225.9,1371.221,,
01/03/05,17:30,133.5,226.0,1371.220,,
01/03/05,18:00,133.5,226.0,1371.220,,
01/03/05,18:30,133.6,225.9,1371.221,,
01/03/05,19:00,133.5,226.0,1371.220,,
01/03/05,19:30,133.3,226.2,1371.218,,
01/03/05,20:00,133.3,226.2,1371.218,,
01/03/05,20:30,133.1,226.4,1371.216,,
01/03/05,21:00,133.1,226.4,1371.216,,
01/03/05,21:30,133.1,226.4,1371.216,,
01/03/05,22:00,133.8,225.7,1371.223,,
01/03/05,22:30,133.5,226.0,1371.220,,
01/03/05,23:00,133.8,225.7,1371.223,,
01/03/05,23:30,134.1,225.4,1371.226,,
01/04/05,0:00,134.1,225.4,1371.226,,
01/04/05,0:30,134.3,225.2,1371.228,,
01/04/05,1:00,134.4,225.1,1371.229,,
01/04/05,1:30,134.4,225.2,1371.229,,
01/04/05,2:00,134.3,225.3,1371.228,,
01/04/05,2:30,134.3,225.2,1371.228,,
01/04/05,3:00,134.1,225.4,1371.226,,
01/04/05,3:30,134.2,225.3,1371.227,,
01/04/05,4:00,134.4,225.1,1371.229,,
01/04/05,4:30,134.4,225.1,1371.229,,
01/04/05,5:00,134.4,225.1,1371.229,,
01/04/05,5:30,134.5,225.0,1371.230,,
01/04/05,6:00,134.3,225.2,1371.228,,
01/04/05,6:30,134.3,225.2,1371.228,,
01/04/05,7:00,134.2,225.3,1371.227,,
01/04/05,7:30,134.3,225.2,1371.228,,
01/04/05,8:00,134.5,225.0,1371.230,,
01/04/05,8:30,134.5,225.0,1371.230,,
01/04/05,9:00,134.6,224.9,1371.231,,
01/04/05,9:30,134.5,225.0,1371.230,,
01/04/05,10:00,134.5,225.0,1371.230,,
01/04/05,10:30,134.4,225.1,1371.229,,
01/04/05,11:00,134.4,225.1,1371.229,,
01/04/05,11:30,134.6,224.9,1371.231,,
01/04/05,12:00,134.9,224.6,1371.234,,
01/04/05,12:30,134.9,224.6,1371.234,,
01/04/05,13:00,135.0,224.5,1371.235,,
01/04/05,13:30,135.2,224.4,1371.237,,
01/04/05,14:00,135.0,224.6,1371.235,,
01/04/05,14:30,135.0,224.6,1371.235,,
01/04/05,15:00,135.1,224.4,1371.236,,
01/04/05,15:30,135.0,224.5,1371.235,,
01/04/05,16:00,135.0,224.5,1371.235,,
01/04/05,16:30,135.0,224.5,1371.235,,
01/04/05,17:00,135.0,224.5,1371.235,,
01/04/05,17:30,134.9,224.6,1371.234,,
01/04/05,18:00,134.9,224.6,1371.234,,
01/04/05,18:30,134.9,224.6,1371.234,,
01/04/05,19:00,134.8,224.7,1371.233,,
01/04/05,19:30,134.8,224.7,1371.233,,
01/04/05,20:00,134.6,224.9,1371.231,,
01/04/05,20:30,134.4,225.1,1371.229,,
01/04/05,21:00,134.4,225.1,1371.229,,
01/04/05,21:30,134.5,225.0,1371.230,,
01/04/05,22:00,134.4,225.1,1371.229,,
01/04/05,22:30,134.2,225.3,1371.227,,
01/04/05,23:00,134.0,225.5,1371.225,,
01/04/05,23:30,134.1,225.4,1371.226,,
01/05/05,0:00,134.1,225.4,1371.226,,
01/05/05,0:30,134.2,225.3,1371.227,,
01/05/05,1:00,134.4,225.1,1371.229,,
01/05/05,1:30,134.5,225.0,1371.230,,
01/05/05,2:00,134.5,225.1,1371.230,,
01/05/05,2:30,134.3,225.3,1371.228,,
01/05/05,3:00,134.1,225.4,1371.226,,
01/05/05,3:30,134.1,225.4,1371.226,,
01/05/05,4:00,134.1,225.4,1371.226,,
01/05/05,4:30,134.2,225.3,1371.227,,
01/05/05,5:00,134.3,225.2,1371.228,,
01/05/05,5:30,134.3,225.2,1371.228,,
01/05/05,6:00,134.3,225.2,1371.228,,
01/05/05,6:30,134.0,225.5,1371.225,,
01/05/05,7:00,134.1,225.4,1371.226,,
01/05/05,7:30,134.2,225.3,1371.227,,
01/05/05,8:00,134.3,225.2,1371.228,,
01/05/05,8:30,134.4,225.1,1371.229,,
01/05/05,9:00,134.4,225.1,1371.229,,
01/05/05,9:30,134.2,225.3,1371.227,,
01/05/05,10:00,134.1,225.4,1371.226,,
01/05/05,10:30,134.3,225.2,1371.228,,
01/05/05,11:00,134.6,224.9,1371.231,,
01/05/05,11:30,134.9,224.6,1371.234,,
01/05/05,12:00,135.1,224.4,1371.236,,
01/05/05,12:30,135.2,224.3,1371.237,,
01/05/05,13:00,135.4,224.1,1371.239,,
01/05/05,13:30,135.5,224.0,1371.240,,
01/05/05,14:00,135.6,223.9,1371.241,,
01/05/05,14:30,135.6,224.0,1371.241,,
01/05/05,15:00,135.5,224.1,1371.240,,
01/05/05,15:30,135.4,224.1,1371.239,,
01/05/05,16:00,135.3,224.2,1371.238,,
01/05/05,16:30,135.3,224.2,1371.238,,
01/05/05,17:00,135.2,224.3,1371.237,,
01/05/05,17:30,135.2,224.3,1371.237,,
01/05/05,18:00,135.0,224.5,1371.235,,
01/05/05,18:30,134.9,224.6,1371.234,,
01/05/05,19:00,134.8,224.7,1371.233,,
01/05/05,19:30,134.7,224.8,1371.232,,
01/05/05,20:00,134.7,224.8,1371.232,,
01/05/05,20:30,134.9,224.6,1371.234,,
01/05/05,21:00,134.9,224.6,1371.234,,
01/05/05,21:30,134.9,224.6,1371.234,,
01/05/05,22:00,134.9,224.6,1371.234,,
01/05/05,22:30,135.0,224.5,1371.235,,
01/05/05,23:00,135.1,224.4,1371.236,,
01/05/05,23:30,135.3,224.2,1371.238,,
01/06/05,0:00,135.4,224.1,1371.239,,
01/06/05,0:30,135.5,224.0,1371.240,,
01/06/05,1:00,135.5,224.0,1371.240,,
01/06/05,1:30,135.5,224.0,1371.240,,
01/06/05,2:00,135.5,224.0,1371.240,,
01/06/05,2:30,135.7,223.9,1371.242,,
01/06/05,3:00,135.7,223.9,1371.242,,
01/06/05,3:30,135.8,223.8,1371.243,,
01/06/05,4:00,135.7,223.8,1371.242,,
01/06/05,4:30,135.9,223.6,1371.244,,
01/06/05,5:00,135.9,223.6,1371.244,,
01/06/05,5:30,135.9,223.6,1371.244,,
01/06/05,6:00,135.9,223.6,1371.244,,
01/06/05,6:30,135.9,223.6,1371.244,,
01/06/05,7:00,135.9,223.6,1371.244,,
01/06/05,7:30,135.9,223.6,1371.244,,
01/06/05,8:00,135.9,223.6,1371.244,,
01/06/05,8:30,135.8,223.7,1371.243,,
01/06/05,9:00,136.0,223.5,1371.245,,
01/06/05,9:30,136.0,223.5,1371.245,,
01/06/05,10:00,136.1,223.4,1371.246,,
01/06/05,10:30,136.2,223.3,1371.247,,
01/06/05,11:00,136.3,223.2,1371.248,,
01/06/05,11:30,136.5,223.0,1371.250,,
01/06/05,12:00,136.8,222.7,1371.253,,
01/06/05,12:30,137.0,222.5,1371.255,,
01/06/05,13:00,137.1,222.4,1371.256,,
01/06/05,13:30,137.3,222.2,1371.258,,
01/06/05,14:00,137.4,222.1,1371.259,,
01/06/05,14:30,137.5,222.0,1371.260,,
01/06/05,15:00,137.4,222.2,1371.259,,
01/06/05,15:30,137.5,222.1,1371.260,,
01/06/05,16:00,137.6,222.0,1371.261,,
01/06/05,16:30,137.3,222.2,1371.258,,
01/06/05,17:00,137.4,222.1,1371.259,,
01/06/05,17:30,137.2,222.3,1371.257,,
01/06/05,18:00,137.1,222.4,1371.256,,
01/06/05,18:30,136.9,222.6,1371.254,,
01/06/05,19:00,136.9,222.6,1371.254,,
01/06/05,19:30,136.8,222.7,1371.253,,
01/06/05,20:00,136.8,222.7,1371.253,,
01/06/05,20:30,136.8,222.7,1371.253,,
01/06/05,21:00,136.8,222.7,1371.253,,
01/06/05,21:30,136.8,222.7,1371.253,,
01/06/05,22:00,136.8,222.7,1371.253,,
01/06/05,22:30,136.8,222.7,1371.253,,
01/06/05,23:00,136.7,222.8,1371.252,,
01/06/05,23:30,136.9,222.6,1371.254,,
01/07/05,0:00,136.9,222.6,1371.254,,
01/07/05,0:30,137.1,222.4,1371.256,,
01/07/05,1:00,137.1,222.4,1371.256,,
01/07/05,1:30,137.1,222.4,1371.256,,
01/07/05,2:00,137.1,222.4,1371.256,,
01/07/05,2:30,137.1,222.4,1371.256,,
01/07/05,3:00,137.0,222.5,1371.255,,
01/07/05,3:30,137.1,222.5,1371.256,,
01/07/05,4:00,136.9,222.7,1371.254,,
01/07/05,4:30,136.9,222.6,1371.254,,
01/07/05,5:00,136.8,222.7,1371.253,,
01/07/05,5:30,136.6,222.9,1371.251,,
01/07/05,6:00,136.5,223.0,1371.250,,
01/07/05,6:30,136.4,223.1,1371.249,,
01/07/05,7:00,136.4,223.1,1371.249,,
01/07/05,7:30,136.4,223.1,1371.249,,
01/07/05,8:00,136.3,223.2,1371.248,,
01/07/05,8:30,136.3,223.2,1371.248,,
01/07/05,9:00,136.4,223.1,1371.249,,
01/07/05,9:30,136.3,223.2,1371.248,,
01/07/05,10:00,136.4,223.1,1371.249,,
01/07/05,10:30,136.6,222.9,1371.251,,
01/07/05,11:00,136.8,222.7,1371.253,,
01/07/05,11:30,137.0,222.5,1371.255,,
01/07/05,12:00,137.1,222.4,1371.256,,
01/07/05,12:30,137.3,222.2,1371.258,,
01/07/05,13:00,137.5,222.0,1371.260,,
01/07/05,13:30,137.6,221.9,1371.261,,
01/07/05,14:00,137.5,222.0,1371.260,,
01/07/05,14:30,137.5,222.0,1371.260,,
01/07/05,15:00,137.5,222.0,1371.260,,
01/07/05,15:30,137.5,222.1,1371.260,,
01/07/05,16:00,137.3,222.3,1371.258,,
01/07/05,16:30,137.3,222.3,1371.258,,
01/07/05,17:00,137.2,222.3,1371.257,,
01/07/05,17:30,137.1,222.4,1371.256,,
01/07/05,18:00,137.0,222.5,1371.255,,
01/07/05,18:30,136.9,222.6,1371.254,,
01/07/05,19:00,136.8,222.7,1371.253,,
01/07/05,19:30,136.7,222.8,1371.252,,
01/07/05,20:00,136.7,222.8,1371.252,,
01/07/05,20:30,136.7,222.8,1371.252,,
01/07/05,21:00,136.5,223.0,1371.250,,
01/07/05,21:30,136.4,223.1,1371.249,,
01/07/05,22:00,136.3,223.2,1371.248,,
01/07/05,22:30,136.5,223.0,1371.250,,
01/07/05,23:00,136.7,222.8,1371.252,,
01/07/05,23:30,136.6,222.9,1371.251,,
01/08/05,0:00,136.6,222.9,1371.251,,
01/08/05,0:30,136.7,222.8,1371.252,,
01/08/05,1:00,136.9,222.6,1371.254,,
01/08/05,1:30,136.7,222.8,1371.252,,
01/08/05,2:00,136.8,222.7,1371.253,,
01/08/05,2:30,136.9,222.6,1371.254,,
01/08/05,3:00,136.9,222.6,1371.254,,
01/08/05,3:30,136.9,222.6,1371.254,,
01/08/05,4:00,136.9,222.7,1371.254,,
01/08/05,4:30,137.1,222.5,1371.256,,
01/08/05,5:00,137.1,222.5,1371.256,,
01/08/05,5:30,137.0,222.5,1371.255,,
01/08/05,6:00,136.9,222.6,1371.254,,
01/08/05,6:30,136.8,222.7,1371.253,,
01/08/05,7:00,136.8,222.7,1371.253,,
01/08/05,7:30,136.6,222.9,1371.251,,
01/08/05,8:00,136.4,223.1,1371.249,,
01/08/05,8:30,136.2,223.3,1371.247,,
01/08/05,9:00,136.2,223.3,1371.247,,
01/08/05,9:30,136.2,223.3,1371.247,,
01/08/05,10:00,136.2,223.3,1371.247,,
01/08/05,10:30,136.4,223.1,1371.249,,
01/08/05,11:00,136.5,223.0,1371.250,,
01/08/05,11:30,136.6,222.9,1371.251,,
01/08/05,12:00,137.0,222.5,1371.255,,
01/08/05,12:30,137.3,222.2,1371.258,,
01/08/05,13:00,137.4,222.1,1371.259,,
01/08/05,13:30,137.6,221.9,1371.261,,
01/08/05,14:00,137.6,221.9,1371.261,,
01/08/05,14:30,137.5,222.0,1371.260,,
01/08/05,15:00,137.4,222.1,1371.259,,
01/08/05,15:30,137.3,222.2,1371.258,,
01/08/05,16:00,137.2,222.3,1371.257,,
01/08/05,16:30,137.1,222.5,1371.256,,
01/08/05,17:00,137.1,222.5,1371.256,,
01/08/05,17:30,137.0,222.5,1371.255,,
01/08/05,18:00,136.9,222.6,1371.254,,
01/08/05,18:30,136.8,222.7,1371.253,,
01/08/05,19:00,136.6,222.9,1371.251,,
01/08/05,19:30,136.5,223.0,1371.250,,
01/08/05,20:00,136.4,223.1,1371.249,,
01/08/05,20:30,136.4,223.1,1371.249,,
01/08/05,21:00,136.3,223.2,1371.248,,
01/08/05,21:30,136.2,223.3,1371.247,,
01/08/05,22:00,136.2,223.3,1371.247,,
01/08/05,22:30,136.2,223.3,1371.247,,
01/08/05,23:00,136.2,223.3,1371.247,,
01/08/05,23:30,136.5,223.0,1371.250,,
01/09/05,0:00,136.6,222.9,1371.251,,
01/09/05,0:30,136.5,223.0,1371.250,,
01/09/05,1:00,136.8,222.7,1371.253,,
01/09/05,1:30,136.8,222.7,1371.253,,
01/09/05,2:00,136.9,222.6,1371.254,,
01/09/05,2:30,136.9,222.6,1371.254,,
01/09/05,3:00,136.9,222.6,1371.254,,
01/09/05,3:30,136.7,222.8,1371.252,,
01/09/05,4:00,136.7,222.8,1371.252,,
01/09/05,4:30,136.9,222.7,1371.254,,
01/09/05,5:00,136.9,222.7,1371.254,,
01/09/05,5:30,136.8,222.8,1371.253,,
01/09/05,6:00,136.8,222.7,1371.253,,
01/09/05,6:30,136.6,222.9,1371.251,,
01/09/05,7:00,136.6,222.9,1371.251,,
01/09/05,7:30,136.5,223.0,1371.250,,
01/09/05,8:00,136.5,223.0,1371.250,,
01/09/05,8:30,136.4,223.1,1371.249,,
01/09/05,9:00,136.3,223.2,1371.248,,
01/09/05,9:30,136.2,223.3,1371.247,,
01/09/05,10:00,136.4,223.1,1371.249,,
01/09/05,10:30,136.4,223.1,1371.249,,
01/09/05,11:00,136.6,222.9,1371.251,,
01/09/05,11:30,136.9,222.6,1371.254,,
01/09/05,12:00,137.2,222.3,1371.257,,
01/09/05,12:30,137.5,222.0,1371.260,,
01/09/05,13:00,137.6,221.9,1371.261,,
01/09/05,13:30,137.7,221.8,1371.262,,
01/09/05,14:00,137.7,221.8,1371.262,,
01/09/05,14:30,137.5,222.0,1371.260,,
01/09/05,15:00,137.5,222.0,1371.260,,
01/09/05,15:30,137.5,222.0,1371.260,,
01/09/05,16:00,137.4,222.1,1371.259,,
01/09/05,16:30,137.4,222.1,1371.259,,
01/09/05,17:00,137.4,222.2,1371.259,,
01/09/05,17:30,137.4,222.2,1371.259,,
01/09/05,18:00,137.2,222.4,1371.257,,
01/09/05,18:30,137.2,222.3,1371.257,,
01/09/05,19:00,137.2,222.3,1371.257,,
01/09/05,19:30,136.9,222.6,1371.254,,
01/09/05,20:00,136.9,222.6,1371.254,,
01/09/05,20:30,137.0,222.5,1371.255,,
01/09/05,21:00,136.9,222.6,1371.254,,
01/09/05,21:30,136.7,222.8,1371.252,,
01/09/05,22:00,136.6,222.9,1371.251,,
01/09/05,22:30,136.7,222.8,1371.252,,
01/09/05,23:00,136.8,222.7,1371.253,,
01/09/05,23:30,136.9,222.6,1371.254,,
01/10/05,0:00,137.1,222.4,1371.256,,
01/10/05,0:30,137.0,222.5,1371.255,,
01/10/05,1:00,137.1,222.4,1371.256,,
01/10/05,1:30,137.1,222.4,1371.256,,
01/10/05,2:00,137.1,222.4,1371.256,,
01/10/05,2:30,137.4,222.1,1371.259,,
01/10/05,3:00,137.2,222.3,1371.257,,
01/10/05,3:30,137.4,222.1,1371.259,,
01/10/05,4:00,137.4,222.1,1371.259,,
01/10/05,4:30,137.7,221.8,1371.262,,
01/10/05,5:00,137.7,221.8,1371.262,,
01/10/05,5:30,137.7,221.9,1371.262,,
01/10/05,6:00,137.7,221.9,1371.262,,
01/10/05,6:30,137.4,222.1,1371.259,,
01/10/05,7:00,137.5,222.0,1371.260,,
01/10/05,7:30,137.3,222.2,1371.258,,
01/10/05,8:00,137.3,222.2,1371.258,,
01/10/05,8:30,137.2,222.3,1371.257,,
01/10/05,9:00,137.3,222.2,1371.258,,
01/10/05,9:30,137.1,222.4,1371.256,,
01/10/05,10:00,137.1,222.4,1371.256,,
01/10/05,10:30,137.3,222.2,1371.258,,
01/10/05,11:00,137.5,222.0,1371.260,,
01/10/05,11:30,137.8,221.7,1371.263,,
01/10/05,12:00,138.1,221.4,1371.266,,
01/10/05,12:30,138.1,221.4,1371.266,,
01/10/05,13:00,138.3,221.2,1371.268,,
01/10/05,13:30,138.4,221.1,1371.269,,
01/10/05,14:00,138.4,221.1,1371.269,,
01/10/05,14:30,138.4,221.1,1371.269,,
01/10/05,15:00,138.4,221.1,1371.269,,
01/10/05,15:30,138.4,221.1,1371.269,,
01/10/05,16:00,138.5,221.0,1371.270,,
01/10/05,16:30,138.4,221.1,1371.269,,
01/10/05,17:00,138.3,221.2,1371.268,,
01/10/05,17:30,138.3,221.2,1371.268,,
01/10/05,18:00,138.2,221.4,1371.267,,
01/10/05,18:30,138.2,221.4,1371.267,,
01/10/05,19:00,138.3,221.2,1371.268,,
01/10/05,19:30,138.2,221.3,1371.267,,
01/10/05,20:00,138.2,221.3,1371.267,,
01/10/05,20:30,138.3,221.2,1371.268,,
01/10/05,21:00,138.4,221.1,1371.269,,
01/10/05,21:30,138.5,221.0,1371.270,,
01/10/05,22:00,138.5,221.0,1371.270,,
01/10/05,22:30,138.5,221.0,1371.270,,
01/10/05,23:00,138.9,220.6,1371.274,,
01/10/05,23:30,139.1,220.4,1371.276,,
01/11/05,0:00,139.3,220.2,1371.278,,
01/11/05,0:30,139.5,220.0,1371.280,,
01/11/05,1:00,139.7,219.8,1371.282,,
01/11/05,1:30,139.9,219.6,1371.284,,
01/11/05,2:00,140.0,219.5,1371.285,,
01/11/05,2:30,140.2,219.3,1371.287,,
01/11/05,3:00,140.3,219.2,1371.288,,
01/11/05,3:30,140.5,219.0,1371.290,,
01/11/05,4:00,140.7,218.8,1371.292,,
01/11/05,4:30,141.0,218.5,1371.295,,
01/11/05,5:00,141.1,218.4,1371.296,,
01/11/05,5:30,141.4,218.1,1371.299,,
01/11/05,6:00,141.5,218.1,1371.300,,
01/11/05,6:30,141.7,217.9,1371.302,,
01/11/05,7:00,141.9,217.7,1371.304,,
01/11/05,7:30,141.9,217.6,1371.304,,
01/11/05,8:00,142.1,217.4,1371.306,,
01/11/05,8:30,142.3,217.2,1371.308,,
01/11/05,9:00,142.3,217.2,1371.308,,
01/11/05,9:30,142.6,216.9,1371.311,,
01/11/05,10:00,142.8,216.7,1371.313,,
01/11/05,10:30,143.1,216.4,1371.316,,
01/11/05,11:00,143.5,216.0,1371.320,,
01/11/05,11:30,143.9,215.6,1371.324,,
01/11/05,12:00,144.2,215.3,1371.327,,
01/11/05,12:30,144.5,215.0,1371.330,,
01/11/05,13:00,144.9,214.6,1371.334,,
01/11/05,13:30,145.0,214.5,1371.335,,
01/11/05,14:00,145.1,214.4,1371.336,,
01/11/05,14:30,145.2,214.3,1371.337,,
01/11/05,15:00,145.5,214.0,1371.340,,
01/11/05,15:30,145.5,214.0,1371.340,,
01/11/05,16:00,145.8,213.7,1371.343,,
01/11/05,16:30,146.0,213.5,1371.345,,
01/11/05,17:00,146.3,213.2,1371.348,,
01/11/05,17:30,146.4,213.1,1371.349,,
01/11/05,18:00,146.7,212.8,1371.352,,
01/11/05,18:30,146.9,212.7,1371.354,,
01/11/05,19:00,147.0,212.6,1371.355,,
01/11/05,19:30,147.1,212.4,1371.356,,
01/11/05,20:00,147.2,212.3,1371.357,,
01/11/05,20:30,147.3,212.2,1371.358,,
01/11/05,21:00,147.4,212.1,1371.359,,
01/11/05,21:30,147.8,211.7,1371.363,,
01/11/05,22:00,148.1,211.4,1371.366,,
01/11/05,22:30,148.1,211.4,1371.366,,
01/11/05,23:00,148.2,211.3,1371.367,,
01/11/05,23:30,148.2,211.3,1371.367,,
01/12/05,0:00,148.6,210.9,1371.371,,
01/12/05,0:30,148.7,210.8,1371.372,,
01/12/05,1:00,148.8,210.7,1371.373,,
01/12/05,1:30,148.9,210.6,1371.374,,
01/12/05,2:00,148.5,211.0,1371.370,,
01/12/05,2:30,148.7,210.8,1371.372,,
01/12/05,3:00,149.1,210.4,1371.376,,
01/12/05,3:30,149.4,210.1,1371.379,,
01/12/05,4:00,149.3,210.2,1371.378,,
01/12/05,4:30,149.5,210.0,1371.380,,
01/12/05,5:00,149.7,209.8,1371.382,,
01/12/05,5:30,149.9,209.6,1371.384,,
01/12/05,6:00,150.0,209.5,1371.385,,
01/12/05,6:30,149.9,209.6,1371.384,,
01/12/05,7:00,150.0,209.6,1371.385,,
01/12/05,7:30,150.3,209.3,1371.388,,
01/12/05,8:00,150.1,209.4,1371.386,,
01/12/05,8:30,150.3,209.2,1371.388,,
01/12/05,9:00,150.7,208.8,1371.392,,
01/12/05,9:30,150.7,208.8,1371.392,,
01/12/05,10:00,150.6,208.9,1371.391,,
01/12/05,10:30,150.9,208.6,1371.394,,
01/12/05,11:00,151.2,208.3,1371.397,,
01/12/05,11:30,151.5,208.0,1371.400,,
01/12/05,12:00,152.0,207.5,1371.405,,
01/12/05,12:30,152.1,207.4,1371.406,,
01/12/05,13:00,152.3,207.2,1371.408,,
01/12/05,13:30,152.4,207.1,1371.409,,
01/12/05,14:00,152.5,207.0,1371.410,,
01/12/05,14:30,152.5,207.0,1371.410,,
01/12/05,15:00,152.6,206.9,1371.411,,
01/12/05,15:30,152.5,207.0,1371.410,,
01/12/05,16:00,152.4,207.1,1371.409,,
01/12/05,16:30,152.7,206.8,1371.412,,
01/12/05,17:00,152.6,206.9,1371.411,,
01/12/05,17:30,152.6,206.9,1371.411,,
01/12/05,18:00,152.7,206.8,1371.412,,
01/12/05,18:30,152.7,206.8,1371.412,,
01/12/05,19:00,152.9,206.7,1371.414,,
01/12/05,19:30,153.1,206.5,1371.416,,
01/12/05,20:00,153.3,206.3,1371.418,,
01/12/05,20:30,153.5,206.0,1371.420,,
01/12/05,21:00,153.7,205.8,1371.422,,
01/12/05,21:30,153.7,205.8,1371.422,,
01/12/05,22:00,153.9,205.6,1371.424,,
01/12/05,22:30,154.0,205.5,1371.425,,
01/12/05,23:00,154.1,205.4,1371.426,,
01/12/05,23:30,154.3,205.2,1371.428,,
01/13/05,0:00,154.5,205.0,1371.430,,
01/13/05,0:30,154.7,204.8,1371.432,,
01/13/05,1:00,154.8,204.7,1371.433,,
01/13/05,1:30,155.1,204.4,1371.436,,
01/13/05,2:00,155.3,204.2,1371.438,,
01/13/05,2:30,155.5,204.0,1371.440,,
01/13/05,3:00,155.7,203.8,1371.442,,
01/13/05,3:30,155.9,203.6,1371.444,,
01/13/05,4:00,156.1,203.4,1371.446,,
01/13/05,4:30,156.4,203.1,1371.449,,
01/13/05,5:00,156.7,202.8,1371.452,,
01/13/05,5:30,156.8,202.7,1371.453,,
01/13/05,6:00,156.9,202.6,1371.454,,
01/13/05,6:30,156.9,202.6,1371.454,,
01/13/05,7:00,157.2,202.3,1371.457,,
01/13/05,7:30,157.3,202.3,1371.458,,
01/13/05,8:00,157.3,202.3,1371.458,,
01/13/05,8:30,157.4,202.1,1371.459,,
01/13/05,9:00,157.6,201.9,1371.461,,
01/13/05,9:30,157.8,201.7,1371.463,,
01/13/05,10:00,157.9,201.6,1371.464,,
01/13/05,10:30,158.2,201.3,1371.467,,
01/13/05,11:00,158.6,200.9,1371.471,,
01/13/05,11:30,158.9,200.6,1371.474,,
01/13/05,12:00,159.3,200.2,1371.478,,
01/13/05,12:30,159.6,199.9,1371.481,,
01/13/05,13:00,159.8,199.7,1371.483,,
01/13/05,13:30,160.2,199.3,1371.487,,
01/13/05,14:00,160.3,199.2,1371.488,,